Location: Cisewo
(53.3833°N, 14.9000°E)
Time: 09:46:00
(UTC+00:00)

POLYITAN 1 - Pass Details

Date: 02 October 2021
Orbit: 589 x 611 km, 97.9° (Epoch: 19 October)

Event Time Altitude Azimuth Distance (km) Brightness Sun altitude
Rises 01:07:57 0° 11° (N) 2,857 ? -32.7°
Reaches altitude 10° 01:10:10 10° 6° (N) 1,946 ? -32.5°
Enters shadow 01:11:23 19° 1° (N) 1,468 ? -32.4°
